Location: ????????
(60.5616°N, 46.8254°E)
Time: 15:40:50
(UTC+00:00)

Cosmos 1633 - Pass Details

Date: 18 February 2020
Orbit: 464 x 482 km, 82.5° (Epoch: 29 March)

Event Time Altitude Azimuth Distance (km) Brightness Sun altitude
Rises 15:41:01 0° 191° (S) 2,518 6.3 -14.4°
Reaches altitude 10° 15:43:05 10° 191° (S) 1,647 5.4 -14.6°
Maximum altitude 15:46:41 85° 103° (ESE) 489 2.4 -15.1°
Drops below altitude 10° 15:50:21 10° 15° (NNE) 1,671 5.2 -15.5°
Sets 15:52:28 0° 15° (NNE) 2,559 6.1 -15.8°
